Regional Weather Roundup
Issued by NWS Jackson, KY

Home | Current Version | Previous Version | Text Only | Print | Product List | Glossary Off
Versions: 1 2 3 4 5 6 7 8 9 10 11 12 13 14 15 16 17 18 19 20 21 22 23 24 25 26 27 28 29 30 31 32 33 34 35 36 37 38 39 40 41 42 43 44 45 46 47 48 49 50

000
ASUS43 KJKL 231511
RWRJKL

EAST KENTUCKY HOURLY WEATHER ROUNDUP
NATIONAL WEATHER SERVICE JACKSON KY
1100 AM EDT WED JUL 23 2014

NOTE: "FAIR" INDICATES FEW OR NO CLOUDS BELOW 12,000 FEET WITH
NO SIGNIFICANT WEATHER AND/OR OBSTRUCTIONS TO VISIBILITY.

* THESE REPORTS ARE NOT UNDER NWS QUALITY CONTROL AND MAY NOT
  REPORT WEATHER SUCH AS PRECIPITATION AND FOG.

KYZ079-080-083-085-087-088-110-112-115-119-120-231600
...EASTERN KENTUCKY...

CITY           SKY/WX    TMP DP  RH WIND       PRES   REMARKS
JACKSON        PTSUNNY   80  70  71 VRB5      30.10F
LONDON         MOSUNNY   83  71  67 W6        30.11F
SOMERSET*      PTSUNNY   81  72  74 SW5       30.11F
MONTICELLO*    SUNNY     85  75  71 VRB5      30.12S HX  93
WILLIAMSBURG*  SUNNY     81  75  83 S5        30.12
MIDDLESBORO*   PTSUNNY   78  72  80 CALM      30.12F
HARLAN APT*    MOSUNNY   77  68  73 MISG      30.14F
HAZARD APT*    MOSUNNY   82  72  69 SW5       30.10F
BLACK MTN*       N/A     66  66 100 CALM        N/A
PIKEVILLE APT* PTSUNNY   79  72  78 CALM      30.11F
BIG SANDY*     CLOUDY    81  73  76 N5        30.09F
MOREHEAD APT*    N/A     81  72  74 VRB5      30.08F
$$

KYZ035-036-041-042-044-050-067-078-099-231600
...CENTRAL KENTUCKY...

CITY           SKY/WX    TMP DP  RH WIND       PRES   REMARKS
MT STERLING*   MOSUNNY   79  72  78 SE6       30.08F
FLEMING/MASON* SUNNY     84  68  58 SE6       30.04F
DANVILLE*      MOSUNNY   82  72  69 CALM      30.10F
RICHMOND*      MOSUNNY   82  70  65 CALM      30.09F
LEXINGTON      MOSUNNY   83  70  64 VRB3      30.09F
FRANKFORT      PTSUNNY   81  69  67 E7        30.07F
$$

KYZ091>093-OHZ055-061-077-WVZ005-015-034-035-042-231600
...SOUTHERN OHIO/WEST VIRGINIA...

CITY           SKY/WX    TMP DP  RH WIND       PRES   REMARKS
COVINGTON      LGT RAIN  73  67  81 W7        30.05R
COLUMBUS       CLOUDY    74  67  78 N13       29.98R
DAYTON         PTSUNNY   73  67  81 W12       30.06S
WILMINGTON     LGT RAIN  73  65  75 W7        30.02R
HUNTINGTON     SUNNY     81  72  74 W5        30.04F
CHARLESTON     PTSUNNY   78  74  87 SW6       30.05F
PINEVILLE*     MOSUNNY   77  74  88 MISG      30.16F
BECKLEY        PTSUNNY   77  67  71 W8        30.15F
BLUEFIELD      PTSUNNY   78  66  66 NW8       30.18F
$$

VAZ002-007-008-TNZ017-027-036-066-071-231600
...SOUTHWEST VIRGINIA/EAST TENNESSEE...

CITY           SKY/WX    TMP DP  RH WIND       PRES   REMARKS
WISE*          HVY RAIN  68  68 100 CALM      30.21S
JONESVILLE*    MOSUNNY   77  72  83 CALM      30.15F
ABINGDON*      CLOUDY    77  70  80 SW7       30.17S
BRISTOL        CLOUDY    75  68  78 S6        30.15S
KNOXVILLE      PTSUNNY   77  70  79 S6        30.12S
OAK RIDGE      CLOUDY    80  72  76 VRB5      30.12F
CROSSVILLE     MOSUNNY   80  69  69 W5        30.17S
NASHVILLE      MOSUNNY   85  72  65 S6        30.10S HX  91
$$

...KEY TO REMARKS...
VSB - VISIBILITY IN MILES
WCI - WIND CHILL INDEX
HX  - HEAT INDEX

$$



USA.gov is the U.S. government's official web portal to all federal, state and local government web resources and services.